Location: Granada
(37.1830°N, 3.6000°W)
Time: 23:46:20
(UTC+02:00)

Iridium 70 - Visible Passes

Search period start: 02 September 2015 00:00
Search period end: 12 September 2015 00:00
Orbit: 776 x 779 km, 86.4° (Epoch: 02 September)

Date Brightness Start Highest point End Pass type
(mag) Time Alt. Az. Time Alt. Az. Time Alt. Az.
02 Sep 7.8 00:36:47 10° N 00:38:15 19° N 00:38:15 19° N visible
03 Sep 7.7 00:03:17 10° N 00:04:48 19° N 00:04:48 19° N visible
03 Sep 7.7 23:30:10 10° NNE 23:31:22 16° NNE 23:31:22 16° NNE visible
04 Sep 8.3 01:11:08 10° NNW 01:11:50 13° NW 01:11:50 13° NW visible
04 Sep 7.9 22:57:39 10° NE 22:57:56 11° NE 22:57:56 11° NE visible
05 Sep 7.9 00:37:01 10° NNW 00:38:25 18° NNW 00:38:25 18° NNW visible
06 Sep 7.6 00:03:18 10° N 00:05:00 21° N 00:05:00 21° N visible
06 Sep 7.5 23:29:57 10° N 23:31:35 20° NNE 23:31:35 20° NNE visible
07 Sep 8.5 01:11:54 10° NW 01:12:03 10° NW 01:12:03 10° NW visible
07 Sep 7.6 22:57:01 10° NNE 22:58:10 15° NE 22:58:10 15° NE visible
08 Sep 8.1 00:37:22 10° NNW 00:38:38 16° NNW 00:38:38 16° NNW visible
09 Sep 7.7 00:03:27 10° N 00:05:14 22° NNW 00:05:14 22° NNW visible
09 Sep 7.4 23:29:53 10° N 23:31:51 23° N 23:31:51 23° N visible
10 Sep 7.3 22:56:41 10° NNE 22:58:28 20° NNE 22:58:28 20° NNE visible
11 Sep 8.3 00:37:57 10° NNW 00:38:56 14° NW 00:38:56 14° NW visible
11 Sep 7.6 22:23:59 10° NNE 22:25:06 14° NE 22:25:06 14° NE visible
